AirNav   ATP
 
 307 users online  

MA36 Snow Airport
Ipswich, Massachusetts, USA

GOING TO IPSWICH?


FAA INFORMATION EFFECTIVE 09 NOVEMBER 2017

Location

FAA Identifier: MA36
Lat/Long: 42-39-59.3370N / 070-51-10.6800W
42-39.988950N / 070-51.178000W
42.6664825 / -70.8529667
(estimated)
Elevation: 61 ft. / 18.6 m (surveyed)
Variation: 16W (1985)
From city: 1 mile SW of IPSWICH, MA
Time zone: UTC -5 (UTC -4 during Daylight Saving Time)
Zip code: 01938

Airport Operations

Airport use: Private use. Permission required prior to landing
Activation date: 09/1950
Control tower: no
ARTCC: BOSTON CENTER
FSS: BRIDGEPORT FLIGHT SERVICE STATION
Attendance: CONTINUOUS
Wind indicator: no
Segmented circle: no

Airport Communications

WX ASOS at BVY (6 nm SW): PHONE 978-921-5042
WX ASOS at LWM (12 nm W): 126.75 (978-687-8017)
WX ASOS at BOS (19 nm S): PHONE 617-567-5762

Nearby radio navigation aids

VOR radial/distance  VOR name  Freq  Var
LWMr128/11.6LAWRENCE VOR/DME112.5015W
BOSr034/19.5BOSTON VOR/DME112.7016W
PSMr198/25.1PEASE VOR/DME116.5016W
MHTr133/25.8MANCHESTER VOR/DME114.4015W

 
NDB name  Hdg/Dist  Freq  Var  ID
SHAKER HILL065/19.225116WSKR ... -.- .-.
ROLLINS198/33.226016WESG . ... --.
MARSHFIELD003/35.036816WIMR .. -- .-.

Airport Services

Fuel available: 100LL
Airframe service: NONE
Powerplant service: NONE

Runway Information

Runway 4/22

Dimensions: 1600 x 100 ft. / 488 x 30 m
Surface: turf
RUNWAY 4  RUNWAY 22
Traffic pattern: leftleft

Airport Ownership and Management from official FAA records

Ownership: Privately-owned
Owner: CROCKER SNOW
120 TOPSFIELD RD
IPSWICH, MA 01938-1665
Phone 978-395-1961
Manager: CROCKER SNOW
120 TOPSFIELD RD
IPSWICH, MA 01938-1665
Phone 978-356-4422

Airport Operational Statistics

Aircraft based on the field: 1
Single engine airplanes: 1
    

Instrument Procedures

There are no published instrument procedures at MA36.

Some nearby airports with instrument procedures:

KBVY - Beverly Regional Airport (6 nm SW)
KLWM - Lawrence Municipal Airport (12 nm W)
KBOS - General Edward Lawrence Logan International Airport (19 nm S)
KBED - Laurence G Hanscom Field Airport (23 nm SW)
KPSM - Portsmouth International Airport at Pease (25 nm N)
 
Loc | Ops | Rwys | IFR | FBO | Links
Com | Nav | Svcs | Stats | Notes


 
Area around MA36 (Snow Airport)
 
Road maps at: MapQuest Bing Google
 
Aerial photo
No photo
 
Sectional chart

 
Airport distance calculator
Flying to Snow Airport? Find the distance to fly.

From to MA36

Sunrise and sunset
Times for 21-Nov-2017
 Local
(UTC-5)
 Zulu
(UTC)
Morning civil twilight06:1311:13
Sunrise06:4311:43
Sunset16:1521:15
Evening civil twilight16:4621:46

Current date and time
Zulu (UTC)  21-Nov-2017 08:13:09
Local (UTC-5)  21-Nov-2017 03:13:09
 
METAR
KBVY 
6nm SW 
210753Z AUTO 22004KT 10SM CLR 02/M03 A3008 RMK AO2 SLP184 T00221033
KLWM 
13nm W 
210754Z AUTO 19006KT 10SM CLR 04/M03 A3009 RMK AO2 SLP191 T00391028
KBOS 
19nm S 
210754Z 23007KT 10SM CLR 03/M03 A3010 RMK AO2 SLP190 T00331033
TAF
KBOS 
19nm S 
210520Z 2106/2212 23012KT P6SM SCT120 FM211800 21016G32KT P6SM FEW200 FM220000 21012G23KT P6SM FEW250 FM220900 21007KT 5SM -RA OVC090
KBED 
23nm SW 
210520Z 2106/2206 20008KT P6SM SCT120 FM211600 21012G26KT P6SM SKC FM220000 20009KT P6SM FEW250
KPSM 
24nm N 
210524Z 2106/2206 VRB03KT P6SM BKN050 FM211500 21010KT P6SM SCT250
NOTAMs
Click for the latest NOTAMs
NOTAMs are issued by the DoD/FAA and will open in a separate window not controlled by AirNav.

 

 
 

Would you like to see your business listed on this page?

 If your business provides an interesting product or service to pilots, flight crews, aircraft, or users of the Snow Airport, you should consider listing it here.  To start the listing process, click on the button below
 
Add a business
 

Other Pages about Snow Airport

Update a link
 
Copyright © AirNav, LLC. All rights reserved. Privacy Policy  Contact